1487592000.8,49541,13.0,73122.3,-0.01,-36.73,-37.09,0,*50
1487592002.02,49542,13.0,73120.3,-0.03,-36.55,-36.79,0,*53
1487592003.26,49543,13.0,73126.0,-0.03,-36.37,-36.49,0,*55
1487592004.46,49544,13.0,73126.3,-0.03,-35.77,-36.07,0,*5F
1487592005.71,49545,13.0,73120.8,-0.01,-35.89,-36.25,0,*5D
1487592006.98,49546,13.0,73122.5,-0.01,-36.13,-36.49,0,*54
1487592008.19,49547,12.94,73114.0,0.01,-35.35,-35.71,0,*77
1487592009.4,49548,12.94,73114.5,0.01,-36.31,-36.49,0,*77
1487592010.64,49549,13.0,73116.3,-0.01,-36.13,-36.43,0,*51
1487592011.83,49550,13.0,73114.5,0.01,-35.71,-36.07,0,*73
1487592013.06,49551,13.0,73118.8,0.01,-35.35,-35.53,0,*70
1487592014.27,49552,13.0,73120.8,0.05,-34.89,-35.07,0,*70
1487592015.54,49553,13.0,73120.8,0.07,-34.19,-34.53,0,*7A
1487592016.75,49554,13.0,73124.0,0.09,-34.13,-34.35,0,*79
1487592017.98,49555,13.0,73128.0,0.09,-34.01,-34.19,0,*75
1487592019.2,49556,13.0,73132.5,0.09,-34.71,-35.07,0,*7F
1487592020.44,49557,12.94,73128.0,0.11,-35.35,-35.71,0,*47
1487592021.68,49558,13.0,73126.3,0.11,-36.49,-36.85,0,*48
1487592022.9,49559,13.0,73126.0,0.11,-36.31,-36.55,0,*4B
1487592024.14,49560,13.0,73126.5,0.11,-35.17,-35.41,0,*40
1487592025.37,49561,13.0,73130.3,0.11,-34.47,-34.77,0,*41
1487592026.59,49562,13.0,73130.5,0.15,-34.01,-34.25,0,*43
1487592027.81,49563,13.0,73132.5,0.15,-34.01,-34.25,0,*42
1487592029.04,49564,13.0,73138.5,0.17,-34.01,-34.41,0,*45
1487592030.28,49565,13.0,73138.3,0.17,-34.01,-34.25,0,*46
1487592031.54,49566,12.94,73132.8,0.19,-34.19,-34.65,0,*46
1487592032.79,49567,13.0,73132.0,0.21,-34.01,-34.47,0,*45
1487592034.01,49568,13.0,73132.3,0.27,-34.53,-34.89,0,*49
1487592035.23,49569,13.0,73134.3,0.23,-34.41,-34.65,0,*4D
1487592036.43,49570,13.0,73134.0,0.27,-34.07,-34.41,0,*45
1487592037.68,49571,12.94,73136.3,0.27,-35.83,-36.25,0,*49
1487592038.9,49572,12.94,73132.0,0.27,-36.49,-37.03,0,*4A
1487592040.1,49573,13.0,73134.3,0.23,-37.03,-37.45,0,*42
1487592041.31,49574,12.94,73132.3,0.27,-36.79,-36.97,0,*43
1487592042.56,49575,12.94,73134.0,0.23,-37.63,-37.99,0,*43
1487592043.78,49576,13.0,73130.8,0.23,-36.91,-37.33,0,*4C
1487592045.03,49577,13.0,73130.0,0.21,-38.43,-38.91,0,*49
1487592046.27,49578,12.94,73126.0,0.19,-38.67,-39.03,0,*41
1487592047.51,49579,12.94,73124.5,0.17,-37.93,-38.35,0,*4E
1487592048.77,49580,12.94,73126.5,0.15,-37.21,-37.63,0,*4F
1487592050.05,49581,13.0,73128.3,0.13,-37.69,-37.99,0,*41
1487592051.3,49582,12.94,73126.0,0.13,-36.73,-37.09,0,*41
1487592052.55,49583,13.0,73126.0,0.13,-36.37,-36.85,0,*45
1487592053.77,49584,13.0,73130.0,0.13,-36.67,-37.03,0,*48
1487592054.99,49585,13.0,73132.5,0.13,-37.27,-37.45,0,*4E
1487592056.23,49586,13.0,73132.3,0.11,-36.73,-36.91,0,*47
1487592057.47,49587,13.0,73134.3,0.11,-37.27,-37.69,0,*40
1487592058.74,49588,13.0,73134.5,0.11,-36.25,-36.49,0,*4F
1487592059.99,49589,13.0,73136.3,0.11,-35.01,-35.41,0,*40
1487592061.23,49590,13.0,73140.8,0.13,-35.17,-35.35,0,*4E
1487592062.49,49591,13.0,73138.5,0.13,-35.59,-35.95,0,*4F
1487592063.75,49592,13.0,73136.0,0.13,-36.13,-36.49,0,*43
1487592065.01,49593,13.0,73140.3,0.13,-36.25,-36.67,0,*4B
1487592066.26,49594,13.0,73138.3,0.11,-36.73,-37.09,0,*44
1487592067.48,49595,13.0,73138.3,0.13,-36.85,-37.27,0,*42
1487592068.74,49596,13.0,73136.0,0.11,-37.39,-37.69,0,*4F
1487592070.01,49597,13.0,73140.8,0.11,-37.09,-37.39,0,*48
1487592071.28,49598,13.0,73138.5,0.11,-37.51,-37.99,0,*40
1487592072.53,49599,13.0,73142.0,0.07,-37.33,-37.51,0,*76
1487592073.75,49600,13.0,73142.0,0.07,-36.97,-37.15,0,*7A
1487592074.94,49601,13.0,73142.5,0.09,-36.73,-37.15,0,*7F
1487592076.15,49602,13.0,73144.3,0.09,-36.79,-37.27,0,*77
1487592077.37,49603,13.0,73140.8,0.07,-36.43,-36.73,0,*71
1487592078.61,49604,13.0,73138.8,0.07,-36.01,-36.61,0,*73
1487592079.83,49605,13.0,73140.8,0.07,-35.29,-35.59,0,*73
1487592081.05,49606,13.0,73140.0,0.07,-34.71,-35.17,0,*76
1487592082.29,49607,13.0,73142.3,0.09,-34.83,-35.07,0,*75
1487592083.53,49608,13.0,73140.8,0.09,-35.41,-35.83,0,*79
1487592084.77,49609,13.0,73138.0,0.09,-35.65,-35.95,0,*79
1487592086.01,49610,13.0,73134.3,0.11,-36.37,-36.85,0,*4E
1487592087.22,49611,13.0,73134.3,0.11,-37.03,-37.27,0,*40
1487592088.47,49612,13.0,73134.0,0.11,-36.13,-36.55,0,*47
1487592089.71,49613,13.0,73134.5,0.11,-35.53,-35.77,0,*42
1487592090.95,49614,13.0,73134.0,0.11,-35.77,-36.13,0,*42
1487592092.18,49615,13.0,73132.8,0.11,-36.31,-36.55,0,*40
1487592093.42,49616,13.0,73134.5,0.11,-36.25,-36.31,0,*44
1487592094.67,49617,13.0,73134.5,0.11,-35.89,-36.13,0,*40
1487592095.92,49618,13.0,73134.5,0.11,-36.13,-36.37,0,*49
1487592097.16,49619,13.0,73130.5,0.11,-35.71,-36.13,0,*49
1487592098.4,49620,13.0,73130.5,0.11,-36.91,-37.27,0,*48
1487592099.65,49621,13.0,73132.0,0.11,-37.27,-37.63,0,*45
1487592100.87,49622,13.0,73132.0,0.11,-37.45,-37.87,0,*48
1487592102.09,49623,12.94,73130.3,0.07,-38.05,-38.43,0,*72
1487592103.33,49624,12.94,73122.0,0.07,-37.57,-37.93,0,*7F
1487592104.53,49625,12.94,73126.8,0.05,-38.85,-39.09,0,*71
1487592105.76,49626,13.0,73128.3,0.05,-37.63,-37.93,0,*78
1487592106.95,49627,13.0,73134.8,0.05,-36.07,-36.31,0,*73
1487592108.17,49628,12.94,73132.5,0.01,-36.31,-36.49,0,*72
1487592109.38,49629,13.0,73138.3,0.01,-34.83,-35.13,0,*74
1487592110.61,49630,13.0,73138.0,0.05,-34.71,-34.95,0,*7A
1487592111.86,49631,13.0,73136.8,0.07,-34.65,-35.01,0,*70
1487592113.11,49632,13.0,73138.3,0.07,-35.07,-35.29,0,*7C
1487592114.38,49633,13.0,73138.5,0.11,-34.65,-35.23,0,*45
1487592115.62,49634,13.0,73130.8,0.11,-35.35,-35.59,0,*4B
1487592116.86,49635,13.0,73132.0,0.11,-34.95,-35.17,0,*4B
1487592118.12,49636,13.0,73134.8,0.11,-34.65,-35.01,0,*40
1487592119.34,49637,12.94,73128.8,0.15,-34.95,-35.17,0,*4D
1487592120.57,49638,13.0,73134.0,0.15,-35.07,-35.29,0,*45
1487592121.79,49639,13.0,73128.3,0.17,-35.13,-35.47,0,*4B
1487592123.01,49640,13.0,73132.0,0.15,-35.17,-35.53,0,*46
1487592124.25,49641,13.0,73132.5,0.17,-34.19,-34.41,0,*48
1487592125.5,49642,13.0,73128.3,0.17,-34.95,-35.29,0,*40
1487592126.76,49643,13.0,73134.0,0.17,-35.53,-35.65,0,*42
1487592128.0,49644,12.94,73134.5,0.17,-34.35,-34.77,0,*46
1487592129.25,49645,13.0,73132.5,0.21,-35.23,-35.77,0,*45
1487592130.52,49646,13.0,73132.8,0.21,-36.25,-36.91,0,*48
1487592131.75,49647,13.0,73136.8,0.19,-35.59,-35.83,0,*4A
1487592132.99,49648,13.0,73138.5,0.19,-34.35,-34.83,0,*4F
1487592134.21,49649,13.0,73136.3,0.21,-34.89,-35.13,0,*4A
1487592135.49,49650,12.94,73132.5,0.21,-34.35,-34.65,0,*45
1487592136.69,49651,13.0,73134.0,0.23,-34.41,-34.77,0,*46
1487592137.9,49652,13.0,73130.0,0.27,-35.65,-36.07,0,*43
1487592139.11,49653,13.0,73132.8,0.27,-35.71,-35.89,0,*42
1487592140.36,49654,12.94,73128.5,0.27,-34.35,-34.53,0,*42
1487592141.58,49655,13.0,73132.0,0.27,-33.67,-33.89,0,*43
1487592142.79,49656,13.0,73128.5,0.31,-34.13,-34.35,0,*43
1487592144.01,49657,13.0,73132.5,0.31,-33.83,-34.19,0,*42
1487592145.22,49658,13.0,73130.5,0.33,-33.83,-34.13,0,*45
1487592146.45,49659,13.0,73132.3,0.35,-33.73,-34.07,0,*48
1487592147.66,49660,13.0,73132.8,0.35,-33.89,-34.25,0,*47
1487592148.86,49661,13.0,73134.8,0.35,-34.13,-34.47,0,*46
1487592150.1,49662,13.0,73136.0,0.37,-35.17,-35.41,0,*45
1487592151.31,49663,13.0,73140.8,0.39,-34.19,-34.25,0,*46
1487592152.53,49664,13.0,73140.3,0.39,-33.67,-33.89,0,*4E
1487592153.77,49665,13.0,73142.5,0.39,-34.01,-34.35,0,*48
1487592155.03,49666,13.0,73142.3,0.41,-34.01,-34.35,0,*44
1487592156.27,49667,13.0,73138.3,0.43,-33.43,-33.49,0,*4A
1487592157.48,49668,13.0,73136.3,0.43,-34.13,-34.35,0,*4B
1487592158.71,49669,13.0,73134.8,0.45,-35.01,-35.35,0,*4F
1487592159.93,49670,13.0,73134.8,0.45,-36.37,-36.67,0,*45
1487592161.14,49671,13.0,73136.8,0.45,-35.41,-35.71,0,*42
1487592162.36,49672,13.0,73136.0,0.43,-34.53,-34.89,0,*43
1487592163.55,49673,13.0,73134.3,0.45,-33.95,-34.25,0,*4F
1487592164.79,49674,13.0,73136.0,0.47,-34.07,-34.31,0,*43
1487592166.02,49675,13.0,73138.5,0.47,-33.89,-34.25,0,*46
1487592167.26,49676,13.0,73136.8,0.47,-35.23,-35.71,0,*43
1487592168.48,49677,13.0,73132.0,0.51,-35.17,-35.47,0,*47
1487592169.73,49678,13.0,73132.5,0.51,-34.83,-35.13,0,*45
1487592170.91,49679,13.0,73134.3,0.53,-34.25,-34.41,0,*4C
1487592172.14,49680,13.0,73132.8,0.51,-33.89,-34.25,0,*4B
1487592173.39,49681,13.0,73136.0,0.55,-33.49,-33.67,0,*43
1487592174.65,49682,13.0,73132.3,0.55,-33.31,-33.61,0,*49
1487592175.85,49683,13.0,73130.5,0.57,-33.61,-33.83,0,*43
1487592177.07,49684,13.0,73128.0,0.59,-33.95,-34.13,0,*4F
1487592178.28,49685,13.0,73128.3,0.61,-34.41,-34.83,0,*42
1487592179.5,49686,13.0,73130.8,0.61,-33.73,-34.07,0,*4B
1487592180.69,49687,13.0,73128.0,0.61,-33.37,-33.83,0,*41
1487592181.93,49688,13.0,73128.0,0.63,-33.67,-33.89,0,*43
1487592183.15,49689,13.0,73130.5,0.65,-33.49,-33.67,0,*48
1487592184.42,49690,13.0,73134.0,0.67,-33.31,-33.77,0,*4C
1487592185.6,49691,13.0,73132.5,0.65,-33.67,-33.95,0,*40
1487592186.85,49692,13.0,73130.8,0.67,-34.35,-34.77,0,*4A
1487592188.07,49693,13.0,73132.3,0.69,-34.53,-34.71,0,*43
1487592189.28,49694,13.0,73132.0,0.69,-33.77,-33.95,0,*48
1487592190.5,49695,13.0,73138.8,0.69,-33.37,-33.61,0,*46
1487592191.73,49696,13.0,73136.5,0.69,-33.61,-33.89,0,*40
1487592192.96,49697,13.0,73136.3,0.77,-33.49,-33.83,0,*4E
1487592194.19,49698,13.0,73140.0,0.77,-33.83,-34.01,0,*4A
1487592195.41,49699,13.0,73138.0,0.77,-34.19,-34.41,0,*4B
1487592196.64,49700,13.0,73140.3,0.81,-33.73,-33.95,0,*46
1487592197.92,49701,13.0,73138.0,0.83,-33.43,-33.73,0,*4E
1487592199.17,49702,13.0,73138.0,0.81,-33.43,-33.73,0,*4F
1487592200.38,49703,13.0,73136.8,0.81,-34.71,-35.17,0,*4C
1487592201.66,49704,13.0,73142.5,0.83,-35.95,-36.37,0,*43
1487592202.9,49705,13.0,73140.5,0.83,-35.29,-35.77,0,*42
1487592204.16,49706,13.0,73136.5,0.83,-34.47,-34.83,0,*42
1487592205.44,49707,13.0,73138.3,0.83,-34.31,-34.53,0,*4F
1487592206.69,49708,13.0,73136.3,0.83,-33.95,-34.31,0,*4D
1487592207.97,49709,13.0,73136.8,0.83,-34.19,-34.35,0,*4B
1487592209.23,49710,13.0,73140.0,0.83,-34.53,-34.71,0,*4D
1487592210.48,49711,13.0,73140.5,0.85,-33.89,-34.01,0,*4D
1487592211.73,49712,13.0,73136.8,0.87,-33.49,-33.67,0,*47
1487592212.97,49713,13.0,73138.8,0.87,-34.77,-35.13,0,*49
1487592214.19,49714,13.0,73138.3,0.89,-35.53,-36.01,0,*47
1487592215.47,49715,13.0,73138.8,0.87,-37.39,-37.81,0,*4F
1487592216.7,49716,13.0,73140.3,0.85,-37.03,-37.39,0,*44
1487592217.93,49717,13.0,73136.0,0.85,-36.13,-36.55,0,*4E
1487592219.21,49718,13.0,73138.5,0.83,-37.51,-37.93,0,*4B
1487592220.46,49719,13.0,73134.3,0.83,-37.75,-38.11,0,*49
1487592221.67,49720,13.0,73134.8,0.81,-37.75,-38.17,0,*47
1487592222.89,49721,13.0,73134.8,0.77,-37.99,-38.17,0,*4D
1487592224.09,49722,13.0,73140.8,0.77,-36.19,-36.43,0,*48
1487592225.28,49723,13.0,73140.0,0.73,-35.29,-35.59,0,*45
1487592226.53,49724,13.0,73136.3,0.77,-35.23,-35.53,0,*46
1487592227.78,49725,13.0,73136.8,0.77,-35.35,-35.83,0,*4D
1487592229.01,49726,13.0,73140.0,0.77,-35.29,-35.53,0,*4E
1487592230.24,49727,13.0,73140.3,0.77,-36.01,-36.25,0,*44
1487592231.45,49728,13.0,73142.8,0.73,-35.95,-36.07,0,*41
1487592232.65,49729,13.0,73142.3,0.73,-35.59,-35.89,0,*45
1487592233.87,49730,13.0,73138.3,0.77,-36.79,-37.03,0,*48
1487592235.08,49731,13.0,73138.5,0.73,-36.67,-37.09,0,*48
1487592236.31,49732,13.0,73136.5,0.77,-36.61,-36.85,0,*4C
1487592237.49,49733,13.0,73134.3,0.73,-36.55,-37.03,0,*41
1487592238.68,49734,13.0,73130.3,0.73,-36.67,-37.03,0,*47
1487592239.9,49735,13.0,73130.5,0.69,-36.73,-37.09,0,*42
1487592241.15,49736,13.0,73130.0,0.67,-37.03,-37.39,0,*4A
1487592242.36,49737,13.0,73126.8,0.69,-37.09,-37.45,0,*44
1487592243.59,49738,13.0,73124.3,0.67,-36.43,-36.55,0,*4A
1487592244.83,49739,13.0,73124.3,0.67,-35.83,-36.07,0,*43
1487592246.09,49740,13.0,73122.5,0.67,-35.41,-35.83,0,*4C
1487592247.33,49741,13.0,73122.0,0.67,-36.07,-36.37,0,*40
1487592248.59,49742,13.0,73118.8,0.67,-35.83,-36.01,0,*49
1487592249.81,49743,13.0,73122.0,0.67,-35.71,-36.01,0,*45
1487592251.03,49744,13.0,73122.8,0.69,-35.23,-35.47,0,*4A
1487592252.24,49745,13.0,73120.8,0.67,-35.13,-35.47,0,*46
1487592253.46,49746,13.0,73124.5,0.69,-35.17,-35.41,0,*49
1487592254.73,49747,13.0,73120.0,0.67,-34.53,-34.95,0,*4F
1487592255.95,49748,13.0,73126.8,0.73,-35.35,-35.77,0,*49
1487592257.16,49749,13.0,73126.0,0.73,-35.77,-36.13,0,*4F
1487592258.4,49750,13.0,73128.8,0.69,-36.13,-36.49,0,*42
1487592259.62,49751,13.0,73130.5,0.69,-35.95,-36.19,0,*4B
1487592260.84,49752,13.0,73130.3,0.69,-34.65,-34.89,0,*4D
1487592262.05,49753,13.0,73132.5,0.73,-34.41,-34.65,0,*43
1487592263.25,49754,13.0,73134.0,0.77,-34.41,-34.71,0,*45
1487592264.46,49755,13.0,73132.0,0.77,-34.59,-34.89,0,*4A
1487592265.71,49756,13.0,73132.5,0.79,-34.53,-34.89,0,*4D
1487592266.96,49757,13.0,73134.8,0.79,-34.35,-34.59,0,*41
1487592268.19,49758,13.0,73134.8,0.81,-33.89,-34.13,0,*47
1487592269.42,49759,13.0,73134.5,0.81,-34.07,-34.31,0,*47
1487592270.63,49760,13.0,73136.3,0.81,-35.01,-35.29,0,*42
1487592271.83,49761,13.0,73134.8,0.85,-35.17,-35.59,0,*47
1487592273.09,49762,13.0,73136.0,0.83,-34.71,-35.07,0,*48
1487592274.35,49763,13.0,73136.8,0.83,-34.35,-34.71,0,*49
1487592275.56,49764,13.0,73136.3,0.85,-34.77,-35.13,0,*4B
1487592276.79,49765,13.0,73138.0,0.85,-34.77,-34.95,0,*45
1487592278.0,49766,13.0,73136.5,0.85,-34.47,-34.77,0,*49
1487592279.21,49767,13.0,73140.3,0.85,-34.41,-34.77,0,*4E
1487592280.47,49768,13.0,73138.0,0.87,-34.13,-34.65,0,*47
1487592281.69,49769,13.0,73136.5,0.89,-34.01,-34.25,0,*4F
1487592282.91,49770,13.0,73138.5,0.89,-34.01,-34.25,0,*47
1487592284.14,49771,13.0,73138.8,0.89,-34.07,-34.53,0,*41
1487592285.42,49772,13.0,73134.3,0.91,-33.77,-34.01,0,*4C
1487592286.71,49773,13.0,73132.8,0.91,-33.73,-34.01,0,*49
1487592287.97,49774,13.0,73134.3,0.99,-33.73,-33.83,0,*4B
1487592289.2,49775,13.0,73138.3,0.99,-34.25,-34.47,0,*41
1487592290.43,49776,13.0,73138.0,0.99,-34.41,-34.77,0,*43
1487592291.69,49777,13.0,73140.5,0.99,-35.71,-35.95,0,*4D
1487592292.95,49778,13.0,73136.0,0.99,-36.13,-36.55,0,*4A
1487592294.22,49779,13.0,73140.8,0.99,-35.77,-35.95,0,*45
1487592295.43,49780,13.0,73142.3,0.97,-36.19,-36.67,0,*48
1487592296.68,49781,13.0,73140.3,0.97,-35.23,-35.53,0,*47
1487592297.89,49782,13.0,73140.0,0.97,-35.59,-35.89,0,*4E
1487592299.11,49783,13.0,73138.3,0.97,-35.53,-35.71,0,*42
1487592300.31,49784,13.0,73136.0,0.97,-35.89,-36.19,0,*4F
1487592301.54,49785,13.0,73136.5,0.97,-35.53,-35.89,0,*43
1487592302.79,49786,13.0,73142.3,0.97,-34.83,-35.07,0,*4A
1487592304.02,49787,13.0,73142.3,0.97,-34.31,-34.59,0,*48
1487592305.22,49788,13.0,73140.3,0.97,-34.13,-34.41,0,*4E
1487592306.48,49789,12.94,73132.8,0.99,-35.01,-35.35,0,*41
1487592307.72,49790,13.0,73140.5,0.97,-35.01,-35.35,0,*47
1487592308.96,49791,13.0,73144.0,0.99,-35.41,-35.71,0,*4C
1487592310.22,49792,13.0,73146.0,0.99,-35.53,-35.77,0,*4A
1487592311.42,49793,13.0,73144.0,0.97,-36.67,-36.85,0,*4F
1487592312.65,49794,13.0,73142.5,0.97,-36.55,-36.91,0,*4C
1487592313.85,49795,13.0,73142.8,0.97,-36.07,-36.19,0,*4A
1487592315.08,49796,13.0,73138.8,0.97,-35.77,-36.13,0,*47
1487592316.32,49797,13.0,73142.0,0.97,-37.81,-38.35,0,*47
1487592317.52,49798,13.0,73142.8,0.93,-37.15,-37.45,0,*49
1487592318.78,49799,13.0,73138.8,0.91,-37.27,-37.51,0,*4E
1487592320.01,49800,13.0,73140.3,0.91,-36.19,-36.73,0,*4C
1487592321.28,49801,13.0,73140.3,0.91,-36.37,-36.61,0,*42
1487592322.56,49802,13.0,73142.3,0.91,-35.41,-35.65,0,*44
1487592323.81,49803,13.0,73136.3,0.91,-36.55,-36.79,0,*4D
1487592325.01,49804,13.0,73136.8,0.89,-36.01,-36.19,0,*44
1487592326.24,49805,13.0,73138.8,0.89,-37.03,-37.39,0,*45
1487592327.52,49806,13.0,73138.8,0.87,-37.39,-37.63,0,*4E
1487592328.78,49807,13.0,73128.3,0.87,-37.81,-38.35,0,*40
1487592330.06,49808,13.0,73134.0,0.87,-37.69,-37.99,0,*40
1487592331.34,49809,13.0,73134.8,0.83,-37.63,-37.93,0,*45
1487592332.6,49810,13.0,73124.5,0.83,-37.33,-37.63,0,*47
1487592333.88,49811,13.0,73118.8,0.83,-38.23,-38.67,0,*43
1487592335.13,49812,13.0,73124.5,0.81,-38.29,-38.91,0,*41
1487592336.38,49813,13.0,73126.3,0.79,-39.29,-39.85,0,*42
1487592337.63,49814,13.0,73130.3,0.73,-37.81,-37.81,0,*49
1487592338.85,49815,13.0,73130.8,0.77,-36.07,-36.37,0,*4F
1487592340.08,49816,13.0,73128.0,0.77,-36.37,-36.67,0,*4A
1487592341.29,49817,13.0,73132.0,0.73,-35.89,-36.37,0,*4C
1487592342.48,49818,13.0,73134.5,0.73,-36.07,-36.31,0,*40
1487592343.71,49819,13.0,73134.0,0.77,-37.03,-37.39,0,*49
1487592344.93,49820,13.0,73124.3,0.73,-36.73,-37.09,0,*42
1487592346.14,49821,13.0,73124.8,0.73,-36.55,-36.91,0,*47
1487592347.33,49822,13.0,73114.5,0.73,-35.71,-35.89,0,*4B
1487592348.59,49823,13.0,73126.0,0.77,-37.51,-37.99,0,*4D
1487592349.78,49824,13.0,73128.0,0.73,-37.87,-38.55,0,*4A
1487592350.97,49825,13.0,73126.5,0.69,-37.15,-37.45,0,*45
1487592352.19,49826,13.0,73128.3,0.69,-36.31,-36.61,0,*46
1487592353.42,49827,13.0,73128.8,0.69,-36.37,-36.79,0,*48
1487592354.63,49828,13.0,73128.5,0.69,-35.17,-35.23,0,*4A
1487592355.88,49829,13.0,73128.0,0.69,-34.31,-34.65,0,*4D
1487592357.1,49830,13.0,73128.5,0.73,-35.35,-35.77,0,*49
1487592358.32,49831,13.0,73126.5,0.77,-35.65,-36.01,0,*4B
1487592359.58,49832,13.0,73126.5,0.77,-36.25,-36.61,0,*49
1487592360.8,49833,13.0,73130.8,0.77,-36.07,-36.37,0,*4B
1487592362.03,49834,13.0,73132.3,0.77,-35.47,-35.83,0,*47
1487592363.25,49835,13.0,73138.0,0.77,-35.83,-36.07,0,*41
1487592364.48,49836,13.0,73140.0,0.77,-36.07,-36.49,0,*47
1487592365.68,49837,13.0,73136.8,0.77,-36.85,-37.33,0,*40
1487592366.88,49838,13.0,73134.3,0.77,-36.85,-37.03,0,*4C
1487592368.11,49839,13.0,73136.0,0.77,-36.61,-37.03,0,*47
1487592369.31,49840,13.0,73134.8,0.77,-36.85,-37.33,0,*40
1487592370.53,49841,13.0,73134.3,0.77,-36.79,-37.15,0,*46
1487592371.75,49842,13.0,73134.3,0.73,-36.85,-37.21,0,*45
1487592372.96,49843,13.0,73130.8,0.73,-36.49,-36.85,0,*4B
1487592374.15,49844,13.0,73128.8,0.73,-36.07,-36.31,0,*49
1487592375.36,49845,13.0,73128.3,0.73,-36.67,-36.91,0,*44
1487592376.6,49846,13.0,73128.0,0.73,-36.49,-36.91,0,*4B
1487592377.81,49847,13.0,73130.0,0.73,-35.17,-35.41,0,*4C
1487592379.03,49848,13.0,73132.8,0.77,-35.17,-35.53,0,*44
1487592380.27,49849,13.0,73130.8,0.73,-35.95,-36.25,0,*49
1487592381.47,49850,13.0,73134.5,0.77,-35.89,-36.19,0,*47
1487592382.68,49851,13.0,73134.5,0.77,-35.47,-35.89,0,*4E
1487592383.93,49852,13.0,73134.8,0.77,-35.35,-35.65,0,*4A
1487592385.13,49853,13.0,73134.3,0.77,-34.77,-35.13,0,*4D
1487592386.36,49854,13.0,73136.0,0.77,-35.65,-36.01,0,*48
1487592387.61,49855,13.0,73138.8,0.79,-36.07,-36.49,0,*4C
1487592388.86,49856,13.0,73138.5,0.79,-35.53,-36.01,0,*41
1487592390.09,49857,13.0,73140.0,0.81,-34.13,-34.31,0,*43
1487592391.32,49858,13.0,73140.5,0.81,-35.59,-35.83,0,*4B
1487592392.55,49859,13.0,73140.5,0.81,-37.27,-37.63,0,*4D
1487592393.78,49860,13.0,73140.3,0.81,-38.35,-38.91,0,*49
1487592395.05,49861,13.0,73142.3,0.79,-37.69,-38.11,0,*41
1487592396.34,49862,13.0,73138.5,0.79,-37.81,-38.29,0,*4F
1487592397.56,49863,13.0,73140.3,0.73,-37.99,-38.61,0,*41
1487592398.76,49864,13.0,73136.5,0.73,-38.91,-39.35,0,*41
1487592399.97,49865,13.0,73136.8,0.67,-38.85,-39.35,0,*40
1487592401.2,49866,13.0,73132.8,0.67,-38.67,-39.35,0,*4F
1487592402.44,49867,13.0,73134.3,0.65,-39.03,-39.53,0,*4F
1487592403.71,49868,13.0,73134.3,0.63,-37.21,-37.63,0,*45
1487592404.93,49869,13.0,73134.8,0.63,-35.47,-35.71,0,*47
1487592406.17,49870,13.0,73134.3,0.63,-37.39,-37.75,0,*42
1487592407.41,49871,13.0,73130.5,0.65,-37.99,-38.29,0,*49
1487592408.65,49872,13.0,73134.0,0.63,-36.49,-36.85,0,*48
1487592409.86,49873,13.0,73134.0,0.61,-37.21,-37.45,0,*49
1487592411.06,49874,13.0,73132.0,0.61,-38.55,-39.09,0,*44
1487592412.25,49875,13.0,73130.8,0.61,-38.55,-39.09,0,*45
1487592413.49,49876,13.0,73128.5,0.57,-38.49,-39.03,0,*44
1487592414.73,49877,13.0,73134.5,0.57,-38.49,-39.03,0,*45
1487592415.96,49878,13.0,73132.8,0.55,-38.73,-39.29,0,*49
1487592417.19,49879,13.0,73128.5,0.55,-39.03,-39.35,0,*43
1487592418.43,49880,13.0,73132.3,0.51,-38.97,-39.41,0,*4E
1487592419.69,49881,13.0,73128.5,0.51,-39.29,-39.79,0,*40
1487592420.92,49882,13.0,73130.8,0.45,-39.65,-40.21,0,*4D
1487592422.12,49883,13.0,73124.8,0.45,-39.65,-40.15,0,*4B
1487592423.34,49884,13.0,73122.3,0.43,-40.03,-40.59,0,*4C
1487592424.6,49885,13.0,73128.8,0.41,-39.71,-40.21,0,*4B
1487592425.84,49886,13.0,73126.3,0.39,-39.29,-39.71,0,*41
1487592427.09,49887,13.0,73128.0,0.37,-39.41,-39.65,0,*45
1487592428.36,49888,13.0,73124.0,0.37,-40.41,-40.79,0,*47
1487592429.58,49889,13.0,73124.8,0.35,-39.23,-39.65,0,*4D
1487592430.82,49890,13.0,73130.5,0.33,-39.03,-39.47,0,*41
1487592432.06,49891,13.0,73124.3,0.29,-39.35,-39.71,0,*4B
1487592433.31,49892,13.0,73126.3,0.29,-39.97,-40.53,0,*4E
1487592434.54,49893,13.0,73126.5,0.29,-38.97,-39.53,0,*40
1487592435.79,49894,13.0,73128.5,0.23,-39.41,-39.79,0,*4F
1487592437.03,49895,13.0,73124.3,0.23,-39.53,-39.97,0,*4D
1487592438.26,49896,13.0,73122.0,0.23,-39.59,-40.03,0,*47
1487592439.54,49897,13.0,73124.3,0.21,-39.79,-40.21,0,*46
1487592440.8,49898,13.0,73124.3,0.21,-39.91,-40.41,0,*49
1487592442.03,49899,13.0,73126.0,0.17,-40.15,-40.91,0,*42
1487592443.25,49900,13.0,73130.0,0.15,-40.09,-40.47,0,*47
1487592444.49,49901,13.0,73130.3,0.15,-38.91,-39.53,0,*43
1487592445.74,49902,13.0,73128.0,0.13,-39.41,-39.91,0,*44
1487592447.02,49903,13.0,73126.5,0.13,-39.71,-39.97,0,*40
1487592448.26,49904,13.0,73124.0,0.09,-39.23,-39.59,0,*79
1487592449.47,49905,13.0,73128.0,0.09,-39.03,-39.47,0,*75
1487592450.68,49906,13.0,73126.5,0.09,-39.09,-39.59,0,*73
1487592451.93,49907,13.0,73128.0,0.07,-39.47,-39.97,0,*74
1487592453.18,49908,13.0,73128.0,0.07,-39.65,-40.09,0,*72
1487592454.42,49909,13.0,73128.5,0.01,-39.23,-39.71,0,*76
1487592455.65,49910,13.0,73122.0,0.01,-38.91,-39.23,0,*71
1487592456.86,49911,13.0,73124.5,0.01,-38.35,-38.79,0,*70
1487592458.1,49912,13.0,73120.5,0.01,-39.15,-39.71,0,*79
1487592459.38,49913,13.0,73120.5,-0.01,-39.15,-39.71,0,*55
1487592460.65,49914,13.0,73116.8,-0.01,-39.97,-40.59,0,*5C
1487592461.87,49915,13.0,73116.0,-0.03,-41.23,-41.61,0,*55
1487592463.09,49916,13.0,73118.0,-0.05,-39.65,-40.03,0,*58
1487592464.31,49917,13.0,73118.3,-0.07,-38.35,-38.67,0,*52
1487592465.51,49918,13.0,73116.8,-0.07,-36.55,-36.73,0,*5E
1487592466.75,49919,13.0,73118.0,-0.05,-36.13,-36.31,0,*59
1487592468.0,49920,13.0,73120.3,-0.05,-36.19,-36.61,0,*5C
1487592469.24,49921,13.0,73124.0,-0.03,-36.61,-36.61,0,*54
1487592470.46,49922,13.0,73122.5,-0.01,-35.77,-36.07,0,*51
1487592471.65,49923,13.0,73126.0,0.01,-35.29,-35.59,0,*7E
1487592472.86,49924,13.0,73120.8,0.01,-35.29,-35.53,0,*73
1487592474.08,49925,13.0,73124.5,0.05,-35.47,-35.83,0,*73
1487592475.29,49926,13.0,73124.3,0.05,-36.19,-36.49,0,*7D
1487592476.55,49927,13.0,73126.3,0.07,-35.65,-36.13,0,*79
1487592477.74,49928,13.0,73126.5,0.09,-36.97,-37.33,0,*75
1487592478.95,49929,13.0,73122.3,0.09,-37.87,-38.11,0,*7B
1487592480.17,49930,13.0,73128.5,0.07,-36.97,-37.33,0,*72
1487592481.43,49931,13.0,73130.3,0.07,-38.67,-39.23,0,*7D
1487592482.67,49932,13.0,73130.5,0.07,-36.43,-36.79,0,*76
1487592483.86,49933,13.0,73128.0,0.09,-37.33,-37.57,0,*72
1487592485.12,49934,13.0,73128.0,0.07,-36.61,-36.79,0,*70
1487592486.34,49935,13.0,73128.5,0.07,-36.97,-37.27,0,*72
1487592487.58,49936,13.0,73128.5,0.07,-36.73,-37.09,0,*77
1487592488.83,49937,13.0,73126.8,0.07,-37.75,-38.23,0,*76
1487592490.05,49938,13.0,73128.3,0.07,-38.61,-38.85,0,*7F
1487592491.27,49939,13.0,73128.8,0.05,-38.49,-38.85,0,*76
1487592492.48,49940,13.0,73132.5,0.07,-38.05,-38.43,0,*78
1487592493.73,49941,13.0,73130.0,0.05,-37.93,-38.29,0,*77
1487592494.92,49942,13.0,73124.8,0.01,-38.17,-38.43,0,*7F
1487592496.11,49943,13.0,73126.5,0.01,-37.57,-37.87,0,*72
1487592497.34,49944,13.0,73128.0,0.01,-36.61,-36.79,0,*71
1487592498.58,49945,13.0,73128.8,0.05,-38.11,-38.49,0,*70
1487592499.79,49946,13.0,73128.8,0.01,-38.79,-38.97,0,*7A
1487592501.01,49947,13.0,73124.3,0.01,-38.61,-38.79,0,*72
1487592502.22,49948,13.0,73122.5,-0.03,-38.67,-38.85,0,*57
1487592503.48,49949,13.0,73122.5,-0.01,-37.87,-38.23,0,*59
1487592504.72,49950,13.0,73122.8,-0.03,-39.41,-39.79,0,*59
1487592505.97,49951,13.0,73116.0,-0.03,-39.97,-40.29,0,*58
1487592507.19,49952,13.0,73118.8,-0.07,-39.47,-40.21,0,*5A
1487592508.44,49953,13.0,73122.3,-0.07,-37.69,-37.99,0,*5A